[[{"header":{"parameterUnit":"m.s-1","parameterCategory":1,"la1":30.2991,"la2":30.254,"lo1":-89.0895,"lo2":-89.0444,"dy":0.0017,"dx":0.0017,"nx":28,"ny":28,"refTime":"2026-02-11T03:00:00:Z","depth":0,"parameterNumber":2,"parameterNumberName":"U-component_of_WINDS"},"data":[0,0,0,0,0,0,0,0,0,0,0,0,0,0,0,0,0,0,0,0,0,0,0,0,0,0,0,0,0,0,0,0,0,0,0,0,0,0,0,0,0,0,0,0,0,0,0,0,0,0,0,0,0,0,0,0,0,0,-0.8628,-0.8628,0,-0.8602,-0.8602,-0.8601,-0.8545,-0.8544,-0.8543,-0.8542,-0.8518,-0.8519,-0.8519,0,0,0,0,0,0,0,0,0,0,0,0,0,-0.8634,-0.8635,-0.8628,-0.8628,-0.8627,-0.8602,-0.8602,-0.8601,-0.8545,-0.8544,-0.8543,-0.8541,-0.8518,-0.8519,-0.8519,0,0,0,0,0,0,0,0,0,0,0,0,0,-0.8622,-0.8635,-0.8628,-0.8596,-0.8593,-0.8602,-0.8602,-0.8601,-0.8546,-0.8544,-0.8542,-0.8541,-0.8518,-0.8519,-0.8519,-0.8558,0,0,-0.8521,-0.8521,0,0,0,0,0,0,0,0,-0.8623,-0.8622,-0.8601,-0.8598,-0.8595,-0.8575,-0.8595,-0.8587,-0.8546,-0.8564,-0.8542,-0.854,-0.8539,-0.8538,-0.8536,-0.8556,-0.8555,-0.8521,-0.8522,-0.8522,-0.8522,0,0,0,0,0,0,0,-0.8624,-0.8623,-0.8618,-0.8601,-0.8597,-0.8585,-0.8582,-0.8593,-0.8561,-0.8562,-0.8558,-0.8556,-0.8537,-0.8536,-0.8536,-0.8555,-0.8521,-0.8522,-0.8522,-0.8522,-0.8609,-0.8611,0,0,0,0,0,0,-0.8629,-0.8624,-0.8618,-0.8617,-0.8605,-0.8586,-0.8582,-0.8583,-0.8561,-0.8556,-0.8557,-0.8553,-0.8536,-0.8535,-0.8535,-0.858,-0.8522,-0.8522,-0.8523,-0.8608,-0.861,-0.8612,0,0,0,0,0,0,-0.8629,-0.8629,-0.8619,-0.8619,-0.8617,-0.8588,-0.859,-0.8584,-0.8583,-0.8557,-0.8552,-0.8562,-0.8534,-0.8534,-0.8553,-0.8578,-0.8523,-0.8523,-0.8605,-0.8608,-0.8611,-0.867,0,0,0,0,0,0,-0.863,-0.8629,-0.8642,-0.862,-0.8617,-0.8637,-0.8591,-0.8584,-0.8584,-0.8578,-0.856,-0.8556,-0.8533,-0.8552,-0.8554,-0.8578,-0.8524,-0.8603,-0.8607,-0.861,-0.8666,-0.8675,-0.8682,0,0,0,0,0,-0.863,-0.866,-0.8643,-0.8643,-0.8632,-0.8638,-0.8637,-0.8609,-0.8586,-0.86,-0.8584,-0.8556,-0.8576,-0.8555,-0.8556,-0.8581,-0.8601,-0.8606,-0.861,-0.8662,-0.8673,-0.8682,0,0,0,0,0,0,-0.8685,-0.8656,-0.8637,-0.866,-0.8652,-0.8629,-0.8645,-0.8621,-0.862,-0.8615,-0.8582,-0.8579,-0.8604,-0.8594,-0.8571,-0.8619,-0.8584,-0.8589,-0.8624,-0.8634,-0.8642,-0.8644,-0.8524,0,0,0,0,0,-0.87,-0.8706,-0.868,-0.8703,-0.87,-0.8674,-0.8675,-0.8655,-0.8646,-0.8642,-0.8627,-0.8621,-0.8626,-0.8629,-0.8632,-0.8665,-0.8662,-0.8683,-0.8692,-0.8699,-0.8703,-0.8723,-0.8733,-0.8626,-0.8626,-0.8626,0,0,-0.873,-0.8715,-0.8721,-0.8714,-0.8705,-0.8714,-0.8671,-0.8681,-0.8688,-0.8644,-0.8661,-0.8651,-0.8642,-0.8669,-0.868,-0.8662,-0.8732,-0.8704,-0.871,-0.871,-0.8728,-0.8738,-0.8747,-0.8629,-0.8629,-0.8628,0,0,-0.879,-0.8779,-0.8798,-0.8791,-0.8779,-0.8761,-0.8766,-0.8747,-0.8739,-0.8756,-0.8724,-0.8733,-0.8741,-0.8737,-0.8735,-0.8799,-0.8774,-0.8801,-0.8844,-0.8864,-0.8872,-0.888,-0.8904,-0.8913,-0.8806,-0.8806,-0.8806,0,-0.883,-0.884,-0.8811,-0.8824,-0.8823,-0.8784,-0.8805,-0.88,-0.879,-0.8791,-0.8771,-0.8783,-0.8774,-0.8801,-0.8817,-0.8817,-0.8823,-0.8802,-0.8873,-0.888,-0.8887,-0.891,-0.8919,-0.8809,-0.8809,-0.8808,-0.8808,0,-0.889,-0.8899,-0.8916,-0.8907,-0.8909,-0.8925,-0.8901,-0.8906,-0.8887,-0.8873,-0.8893,-0.8882,-0.8883,-0.8888,-0.8869,-0.8914,-0.8903,-0.8879,-0.8843,-0.8901,-0.8922,-0.893,-0.8814,-0.8813,-0.8812,-0.8811,0,0,-0.8981,-0.8959,-0.8966,-0.8963,-0.8949,-0.8955,-0.8972,-0.8973,-0.898,-0.8976,-0.899,-0.9,-0.8979,-0.8978,-0.8959,-0.8976,-0.903,-0.895,-0.895,-0.8967,-0.9082,-0.91,-0.9111,-0.9015,-0.9016,-0.9017,-0.9083,0,-0.9038,-0.9064,-0.904,-0.9071,-0.908,-0.9046,-0.9061,-0.9056,-0.9044,-0.9052,-0.9039,-0.9047,-0.9017,-0.9017,-0.9033,-0.902,-0.9053,-0.9015,-0.903,-0.9031,-0.9033,-0.9121,-0.914,-0.9202,-0.9091,-0.9092,-0.9093,0,-0.9107,-0.9106,-0.9139,-0.9126,-0.9129,-0.9142,-0.9144,-0.9151,-0.9145,-0.9136,-0.9137,-0.9115,-0.9133,-0.9099,-0.9126,-0.9101,-0.9106,-0.9101,-0.9103,-0.9103,-0.9065,-0.9125,-0.9221,-0.9231,-0.9106,-0.9105,-0.9104,0,-0.9172,-0.9179,-0.92,-0.9199,-0.9184,-0.9195,-0.919,-0.9182,-0.9186,-0.9188,-0.919,-0.9195,-0.9197,-0.9202,-0.9183,-0.916,-0.9213,-0.9177,-0.9208,-0.9208,-0.922,-0.9219,-0.9319,-0.9223,-0.9223,-0.9222,-0.9222,0,-0.9238,-0.9259,-0.923,-0.9242,-0.9267,-0.9241,-0.9267,-0.9258,-0.9253,-0.9265,-0.9237,-0.925,-0.9223,-0.9234,-0.922,-0.9245,-0.9246,-0.9241,-0.9237,-0.9244,-0.9245,-0.9246,-0.9242,-0.9225,-0.9224,-0.9224,-0.9223,0,-0.9313,-0.9294,-0.9315,-0.93,-0.9297,-0.9316,-0.9305,-0.9318,-0.9306,-0.9322,-0.9325,-0.9306,-0.9318,-0.93,-0.9309,-0.93,-0.9336,-0.9325,-0.9338,-0.9335,-0.9367,-0.9365,-0.9472,-0.9485,-0.938,-0.9381,-0.9382,0,-0.9356,-0.9372,-0.936,-0.9366,-0.9363,-0.9373,-0.9377,-0.9354,-0.9359,-0.9357,-0.9371,-0.9381,-0.9387,-0.9408,-0.9397,-0.9405,-0.9395,-0.9432,-0.9396,-0.9403,-0.9397,-0.9397,-0.9399,-0.9439,-0.944,-0.9441,-0.9442,0,-0.9436,-0.9427,-0.9432,-0.9437,-0.9443,-0.9445,-0.9445,-0.9452,-0.9428,-0.9437,-0.9449,-0.9454,-0.9465,-0.9476,-0.9482,-0.9479,-0.9458,-0.9454,-0.9462,-0.9469,-0.9476,-0.9474,-0.9358,-0.9451,-0.945,-0.945,-0.9449,-0.9449,-0.9497,-0.9511,-0.9505,-0.9514,-0.9513,-0.9515,-0.9527,-0.9517,-0.9527,-0.9533,-0.952,-0.9536,-0.9535,-0.9541,-0.954,-0.9554,-0.9538,-0.9549,-0.9552,-0.9555,-0.9561,-0.9474,-0.9555,-0.9555,-0.9555,-0.9555,-0.9554,0,-0.9576,-0.9572,-0.958,-0.9582,-0.9591,-0.957,-0.9571,-0.9579,-0.9594,-0.9594,-0.9601,-0.9617,-0.9629,-0.962,-0.963,-0.9643,-0.9634,-0.9647,-0.9646,-0.9646,-0.9574,-0.9567,-0.9654,-0.9654,-0.9654,-0.9654,-0.9654,-0.9654,-0.9618,-0.9641,-0.9632,-0.9656,-0.9652,-0.9667,-0.9669,-0.9672,-0.9673,-0.9691,-0.9701,-0.9695,-0.9692,-0.9703,-0.9714,-0.9711,-0.9717,-0.9734,-0.9728,-0.9661,-0.9651,-0.9641,-0.9634,-0.9735,-0.9735,-0.9799,-0.98,-0.98]},{"header":{"parameterUnit":"m.s-1","parameterCategory":1,"la1":30.2991,"la2":30.254,"lo1":-89.0895,"lo2":-89.0444,"dy":0.0017,"dx":0.0017,"nx":28,"ny":28,"refTime":"2026-02-11T03:00:00:Z","depth":0,"parameterNumber":3,"parameterNumberName":"V-component_of_WINDS"},"data":[0,0,0,0,0,0,0,0,0,0,0,0,0,0,0,0,0,0,0,0,0,0,0,0,0,0,0,0,0,0,0,0,0,0,0,0,0,0,0,0,0,0,0,0,0,0,0,0,0,0,0,0,0,0,0,0,0,0,0.4858,0.4859,0,0.4886,0.4886,0.4886,0.4932,0.4932,0.4933,0.4934,0.496,0.4959,0.4959,0,0,0,0,0,0,0,0,0,0,0,0,0,0.4843,0.4843,0.4858,0.4859,0.4859,0.4886,0.4886,0.4886,0.4931,0.4932,0.4933,0.4934,0.496,0.4959,0.4959,0,0,0,0,0,0,0,0,0,0,0,0,0,0.4857,0.4843,0.4858,0.4885,0.4887,0.4886,0.4886,0.4886,0.4931,0.4932,0.4934,0.4935,0.496,0.496,0.4959,0.4933,0,0,0.4959,0.4959,0,0,0,0,0,0,0,0,0.4857,0.4858,0.4881,0.4883,0.4886,0.4907,0.489,0.4902,0.4931,0.4914,0.4934,0.4936,0.4941,0.4942,0.4945,0.4934,0.4935,0.4959,0.4959,0.4959,0.4959,0,0,0,0,0,0,0,0.4856,0.4857,0.4869,0.4881,0.4884,0.4894,0.4898,0.4892,0.492,0.4916,0.4919,0.4922,0.4942,0.4945,0.4945,0.4936,0.4959,0.4959,0.4959,0.4959,0.4904,0.4903,0,0,0,0,0,0,0.4851,0.4856,0.4868,0.487,0.4874,0.4894,0.4898,0.4899,0.492,0.4925,0.4921,0.4924,0.4944,0.4946,0.4946,0.4917,0.4959,0.4959,0.4958,0.4906,0.4904,0.4903,0,0,0,0,0,0,0.485,0.4852,0.4867,0.4864,0.4867,0.4893,0.4893,0.4898,0.4901,0.4924,0.4929,0.4918,0.4945,0.4947,0.4936,0.4918,0.4958,0.4958,0.4907,0.4905,0.4903,0.4857,0,0,0,0,0,0,0.485,0.4851,0.4842,0.4863,0.4867,0.4857,0.4892,0.4898,0.4901,0.4905,0.4923,0.4927,0.4946,0.4936,0.4936,0.4919,0.4958,0.4909,0.4906,0.4904,0.486,0.4853,0.4848,0,0,0,0,0,0.4849,0.4828,0.4841,0.4843,0.4856,0.4856,0.4858,0.4881,0.4899,0.489,0.4905,0.4926,0.492,0.4935,0.4935,0.4917,0.491,0.4907,0.4904,0.4863,0.4855,0.4848,0,0,0,0,0,0,0.4803,0.4831,0.4847,0.4832,0.4841,0.4864,0.4853,0.4872,0.4876,0.488,0.4908,0.4911,0.4897,0.4906,0.4922,0.4892,0.4918,0.4915,0.4887,0.488,0.4874,0.4871,0.4958,0,0,0,0,0,0.4791,0.479,0.4814,0.4798,0.4802,0.4826,0.4827,0.4844,0.4855,0.4859,0.4873,0.4882,0.4882,0.4881,0.4883,0.4862,0.4866,0.485,0.4843,0.4838,0.4835,0.4824,0.4817,0.4893,0.4893,0.4893,0,0,0.4767,0.4782,0.4779,0.4789,0.4799,0.4795,0.4829,0.4825,0.4822,0.4858,0.4849,0.4859,0.4871,0.4855,0.4848,0.4862,0.4815,0.4834,0.483,0.483,0.482,0.4813,0.4806,0.489,0.4891,0.4891,0,0,0.472,0.4732,0.472,0.4728,0.4742,0.4759,0.4755,0.4775,0.4783,0.4775,0.4801,0.4798,0.4798,0.4805,0.4808,0.4764,0.4784,0.4763,0.4731,0.472,0.4714,0.4709,0.4692,0.4686,0.476,0.476,0.476,0,0.4688,0.4685,0.4711,0.4704,0.4708,0.4741,0.4728,0.4735,0.4748,0.4749,0.4764,0.4764,0.4774,0.476,0.4749,0.4751,0.4747,0.4761,0.4713,0.4708,0.4703,0.4688,0.4681,0.4757,0.4758,0.4758,0.4758,0,0.4644,0.4641,0.463,0.4642,0.4644,0.4634,0.4658,0.4657,0.4674,0.4688,0.4678,0.4691,0.4695,0.4693,0.4709,0.4681,0.4689,0.4708,0.4734,0.4693,0.4679,0.4673,0.4754,0.4754,0.4755,0.4756,0,0,0.4569,0.4596,0.4592,0.4597,0.4615,0.4613,0.4604,0.4609,0.4607,0.4614,0.4607,0.4606,0.4624,0.4627,0.4644,0.4634,0.4597,0.4655,0.4656,0.4643,0.4565,0.455,0.4543,0.4611,0.461,0.4609,0.4564,0,0.4526,0.4514,0.4537,0.4518,0.4516,0.4546,0.4539,0.4548,0.4561,0.4559,0.4573,0.4572,0.4596,0.4598,0.459,0.4603,0.4582,0.4607,0.4603,0.4603,0.4599,0.4536,0.452,0.4478,0.4559,0.4558,0.4557,0,0.4474,0.448,0.4461,0.4479,0.4479,0.4472,0.4478,0.4476,0.4487,0.4497,0.4501,0.4521,0.4513,0.4539,0.4527,0.4544,0.4543,0.455,0.4549,0.4549,0.4577,0.4534,0.4465,0.4458,0.4549,0.455,0.455,0,0.4421,0.4424,0.4413,0.4417,0.4438,0.4432,0.444,0.4452,0.4453,0.4458,0.4459,0.4462,0.4464,0.4465,0.4486,0.4503,0.4471,0.4499,0.4478,0.4478,0.447,0.447,0.4399,0.447,0.447,0.4471,0.4471,0,0.437,0.4358,0.439,0.4383,0.4369,0.4395,0.438,0.4392,0.4402,0.4397,0.4424,0.4418,0.4446,0.4443,0.4459,0.4446,0.4447,0.4454,0.4458,0.4451,0.445,0.4451,0.4454,0.4469,0.4469,0.447,0.447,0,0.4309,0.433,0.432,0.434,0.4345,0.4334,0.4351,0.4345,0.4359,0.4353,0.4353,0.4375,0.4373,0.4393,0.4395,0.4406,0.4386,0.4395,0.4382,0.4385,0.4363,0.4365,0.429,0.4281,0.4358,0.4357,0.4357,0,0.4275,0.4266,0.4285,0.4284,0.4291,0.4289,0.429,0.4315,0.4315,0.4326,0.4319,0.4319,0.4321,0.4316,0.4332,0.4333,0.4343,0.4317,0.4343,0.4336,0.4342,0.4342,0.4341,0.4311,0.431,0.4309,0.4309,0,0.4212,0.4222,0.4224,0.4228,0.4229,0.4234,0.424,0.4238,0.4264,0.4263,0.4262,0.4263,0.4265,0.4265,0.4269,0.4277,0.4296,0.43,0.4295,0.4288,0.428,0.4283,0.4366,0.4302,0.4302,0.4303,0.4303,0.4303,0.4163,0.4156,0.4168,0.4168,0.4176,0.4181,0.4176,0.419,0.4189,0.4193,0.4208,0.4204,0.4214,0.4222,0.4227,0.4224,0.4237,0.423,0.4228,0.4226,0.4221,0.4281,0.4225,0.4225,0.4225,0.4225,0.4226,0,0.41,0.411,0.411,0.4118,0.4118,0.4137,0.4145,0.4143,0.414,0.4148,0.4149,0.4147,0.4147,0.4162,0.4163,0.4158,0.4167,0.4157,0.4157,0.4159,0.421,0.4214,0.415,0.415,0.415,0.415,0.415,0.415,0.4068,0.4057,0.4069,0.4062,0.4071,0.4068,0.4071,0.4075,0.4082,0.4078,0.4079,0.4089,0.4099,0.4102,0.4102,0.4107,0.4105,0.4093,0.41,0.4148,0.4155,0.4162,0.4166,0.4092,0.4092,0.4049,0.4048,0.4048]}]]